Home > Weather > Port Louis > Past weeks

Flag for Mauritius Weather for the Past 2 Weeks in Port Louis, Mauritius

Now
81 °F

Sprinkles. Passing clouds.


Feels Like: 88 °F
Forecast: 80 / 88 °F
Wind: 18 mph from Northeast

Location: Plaisance Mauritius

Current Time: Feb 9, 2016 at 6:58:13 PM

Latest Report: Feb 9, 2016 at 6:00 PM


Visibility: 2 mi

Pressure: 29.74 "Hg

Humidity: 94%

Dew point: 79 °F

Location of Port LouisLocation

Historic Weather in Port Louis — Graph

°F

Port Louis Temperature Yesterday

Maximum temperature yesterday: 86 °F (at 12:00 PM)
Minimum temperature yesterday: 81 °F (at 6:00 PM)
Average temperature yesterday: 82 °F

High & Low Weather Summary for the Past Weeks

 TemperatureHumidityPressure
High88 °F (Feb 4, 12:00 PM)100% (Feb 5, 7:00 PM)29.98 "Hg (Feb 5, 7:00 PM)
Low32 °F (Feb 7, 3:00 PM)58% (Feb 2, 5:00 PM)29.71 "Hg (Feb 9, 5:00 PM)
Average82 °F79%29.87 "Hg
* Reported Jan 25 6:00 PM — Feb 9 6:00 PM, Port Louis, Weather by CustomWeather, © 2016

Note: Actual official high and low records may vary slightly from our data, if they occured in-between our weather recording intervals... More about our weather records

Advertising

Port Louis Weather History for the Previous 24 Hours

 ConditionsComfort  
Time TempWeatherWind HumidityBarometerVisibility
6:00 PM
Tue, Feb 9
81 °FSprinkles. Passing clouds.18 mph94%29.74 "Hg2 mi
5:00 PM82 °FScattered showers. Partly sunny.16 mph94%29.71 "Hg4 mi
4:00 PM81 °FSprinkles. Partly sunny.13 mph94%29.74 "Hg2 mi
3:00 PM82 °FScattered showers. Partly sunny.14 mph94%29.74 "Hg4 mi
2:00 PM84 °FBroken clouds.15 mph79%29.74 "HgN/A
12:00 PM81 °FScattered showers. Partly sunny.16 mph89%29.77 "Hg5 mi
11:00 AM81 °FLight rain. Partly sunny.21 mph94%29.80 "Hg3 mi
10:00 AM81 °FSprinkles. Partly sunny.15 mph94%29.80 "Hg3 mi
9:00 AM82 °FScattered showers. Partly sunny.14 mph89%29.80 "Hg3 mi
8:00 AM82 °FScattered showers. Partly sunny.18 mph89%29.80 "HgN/A
7:00 AM82 °FScattered showers. Partly sunny.16 mph89%29.80 "Hg4 mi
6:00 AM82 °FScattered showers. Partly sunny.15 mph89%29.77 "Hg5 mi
5:00 AM82 °FScattered showers. Partly sunny.14 mph94%29.77 "HgN/A
4:00 AM81 °FScattered showers. Passing clouds.15 mph94%29.74 "Hg3 mi
3:00 AM81 °FScattered showers. Passing clouds.9 mph94%29.74 "HgN/A
2:00 AM81 °FScattered showers. Passing clouds.No wind94%29.77 "HgN/A
1:00 AM81 °FScattered showers. Passing clouds.12 mph94%29.77 "Hg5 mi
12:00 AM79 °FScattered showers. Passing clouds.13 mph100%29.80 "HgN/A
11:00 PM
Mon, Feb 8
81 °FThunderstorms. Passing clouds.18 mph94%29.80 "Hg4 mi
10:00 PM82 °FScattered showers. Passing clouds.20 mph89%29.80 "Hg4 mi
9:00 PM81 °FSprinkles. Passing clouds.28 mph89%29.80 "Hg2 mi
8:00 PM81 °FScattered showers. Passing clouds.25 mph94%29.77 "HgN/A
7:00 PM81 °FScattered showers. Passing clouds.22 mph94%29.77 "Hg4 mi
6:00 PM81 °FSprinkles. Passing clouds.23 mph94%29.74 "Hg2 mi
Weather by CustomWeather, © 2016

See weather overviewHow to use our weather pages